Time,TemperatureF,DewpointF,PressureIn,WindDirection,WindDirectionDegrees,WindSpeedMPH,WindSpeedGustMPH,Humidity,HourlyPrecipIn,Conditions,Clouds,dailyrainin,SoftwareType,DateUTC
2013-01-21 00:04:00,18.0,8.0,-100.00,West,280,6.0,9.0,64,-99.99,,,-99.99,,2013-01-21 05:04:00,
2013-01-21 00:12:00,18.0,8.0,-100.00,West,280,6.0,10.0,64,-99.99,,,-99.99,,2013-01-21 05:12:00,
2013-01-21 00:22:00,18.0,8.0,-100.00,WNW,300,7.0,11.0,64,-99.99,,,-99.99,,2013-01-21 05:22:00,
2013-01-21 00:34:00,18.0,8.0,-100.00,West,270,4.0,12.0,64,-99.99,,,-99.99,,2013-01-21 05:34:00,
2013-01-21 00:42:00,18.0,8.0,-100.00,West,260,4.0,6.0,65,-99.99,,,-99.99,,2013-01-21 05:42:00,
2013-01-21 00:52:00,17.0,8.0,-100.00,West,275,3.0,9.0,66,-99.99,,,-99.99,,2013-01-21 05:52:00,
2013-01-21 01:03:00,17.0,8.0,-100.00,West,275,4.0,9.0,66,-99.99,,,-99.99,,2013-01-21 06:03:00,
2013-01-21 01:13:00,18.0,8.0,-100.00,WNW,290,4.0,7.0,66,-99.99,,,-99.99,,2013-01-21 06:13:00,
2013-01-21 01:23:00,18.0,8.0,-100.00,West,280,4.0,6.0,66,-99.99,,,-99.99,,2013-01-21 06:23:00,
2013-01-21 01:33:00,17.0,8.0,-100.00,West,270,4.0,6.0,67,-99.99,,,-99.99,,2013-01-21 06:33:00,
2013-01-21 01:43:00,18.0,9.0,-100.00,West,260,4.0,7.0,67,-99.99,,,-99.99,,2013-01-21 06:43:00,
2013-01-21 01:52:00,18.0,9.0,-100.00,WSW,250,4.0,7.0,68,-99.99,,,-99.99,,2013-01-21 06:52:00,
2013-01-21 02:03:00,18.0,9.0,-100.00,WSW,245,4.0,7.0,68,-99.99,,,-99.99,,2013-01-21 07:03:00,
2013-01-21 02:13:00,18.0,10.0,-100.00,WSW,250,4.0,6.0,69,-99.99,,,-99.99,,2013-01-21 07:13:00,
2013-01-21 02:23:00,18.0,10.0,-100.00,West,270,5.0,7.0,70,-99.99,,,-99.99,,2013-01-21 07:23:00,
2013-01-21 02:33:00,18.0,10.0,-100.00,WSW,240,3.0,7.0,70,-99.99,,,-99.99,,2013-01-21 07:33:00,
2013-01-21 02:42:00,18.0,10.0,-100.00,WSW,240,6.0,10.0,70,-99.99,,,-99.99,,2013-01-21 07:42:00,
2013-01-21 02:52:00,18.0,10.0,-100.00,West,265,5.0,9.0,69,-99.99,,,-99.99,,2013-01-21 07:52:00,
2013-01-21 03:03:00,18.0,10.0,-100.00,WSW,245,7.0,12.0,69,-99.99,,,-99.99,,2013-01-21 08:03:00,
2013-01-21 03:14:00,18.0,10.0,-100.00,WSW,245,5.0,8.0,69,-99.99,,,-99.99,,2013-01-21 08:14:00,
2013-01-21 03:23:00,18.0,10.0,-100.00,West,260,4.0,10.0,69,-99.99,,,-99.99,,2013-01-21 08:23:00,
2013-01-21 03:33:00,18.0,9.0,-100.00,West,265,5.0,11.0,69,-99.99,,,-99.99,,2013-01-21 08:33:00,
2013-01-21 03:42:00,18.0,9.0,-100.00,West,260,6.0,11.0,69,-99.99,,,-99.99,,2013-01-21 08:42:00,
2013-01-21 03:53:00,18.0,10.0,-100.00,West,260,2.0,10.0,69,-99.99,,,-99.99,,2013-01-21 08:53:00,
2013-01-21 04:03:00,18.0,9.0,-100.00,West,265,4.0,10.0,69,-99.99,,,-99.99,,2013-01-21 09:03:00,
2013-01-21 04:12:00,18.0,10.0,-100.00,West,260,6.0,11.0,69,-99.99,,,-99.99,,2013-01-21 09:12:00,
2013-01-21 04:23:00,18.0,9.0,-100.00,West,265,7.0,12.0,70,-99.99,,,-99.99,,2013-01-21 09:23:00,
2013-01-21 04:33:00,18.0,9.0,-100.00,West,265,10.0,14.0,69,-99.99,,,-99.99,,2013-01-21 09:33:00,
2013-01-21 04:42:00,18.0,9.0,-100.00,WSW,245,7.0,13.0,68,-99.99,,,-99.99,,2013-01-21 09:42:00,
2013-01-21 04:53:00,18.0,9.0,-100.00,West,270,8.0,12.0,68,-99.99,,,-99.99,,2013-01-21 09:53:00,
2013-01-21 05:02:00,18.0,9.0,-100.00,West,275,9.0,14.0,68,-99.99,,,-99.99,,2013-01-21 10:02:00,
2013-01-21 05:12:00,18.0,9.0,-100.00,West,265,6.0,14.0,68,-99.99,,,-99.99,,2013-01-21 10:12:00,
2013-01-21 05:22:00,17.0,9.0,-100.00,West,270,12.0,17.0,68,-99.99,,,-99.99,,2013-01-21 10:22:00,
2013-01-21 05:33:00,17.0,8.0,-100.00,West,270,11.0,16.0,67,-99.99,,,-99.99,,2013-01-21 10:33:00,
2013-01-21 05:43:00,17.0,9.0,-100.00,WSW,250,6.0,12.0,68,-99.99,,,-99.99,,2013-01-21 10:43:00,
2013-01-21 05:52:00,17.0,9.0,-100.00,West,265,11.0,16.0,68,-99.99,,,-99.99,,2013-01-21 10:52:00,
2013-01-21 06:13:00,17.0,8.0,-100.00,West,260,9.0,16.0,67,-99.99,,,-99.99,,2013-01-21 11:13:00,
2013-01-21 06:23:00,17.0,8.0,-100.00,West,260,7.0,16.0,67,-99.99,,,-99.99,,2013-01-21 11:23:00,
2013-01-21 06:33:00,17.0,8.0,-100.00,West,260,9.0,14.0,67,-99.99,,,-99.99,,2013-01-21 11:33:00,
2013-01-21 06:43:00,17.0,7.0,-100.00,West,275,13.0,18.0,66,-99.99,,,-99.99,,2013-01-21 11:43:00,
2013-01-21 06:53:00,17.0,7.0,-100.00,West,270,11.0,18.0,65,-99.99,,,-99.99,,2013-01-21 11:53:00,
2013-01-21 07:03:00,17.0,7.0,-100.00,West,260,12.0,19.0,65,-99.99,,,-99.99,,2013-01-21 12:03:00,
2013-01-21 07:12:00,16.0,7.0,-100.00,West,275,13.0,20.0,64,-99.99,,,-99.99,,2013-01-21 12:12:00,
2013-01-21 07:22:00,16.0,6.0,-100.00,West,265,11.0,18.0,64,-99.99,,,-99.99,,2013-01-21 12:22:00,
2013-01-21 07:33:00,16.0,6.0,-100.00,WSW,255,12.0,19.0,64,-99.99,,,-99.99,,2013-01-21 12:33:00,
2013-01-21 07:42:00,16.0,6.0,-100.00,West,260,12.0,19.0,64,-99.99,,,-99.99,,2013-01-21 12:42:00,
2013-01-21 07:52:00,16.0,6.0,-100.00,West,265,9.0,19.0,65,-99.99,,,-99.99,,2013-01-21 12:52:00,
2013-01-21 08:03:00,16.0,6.0,-100.00,West,265,11.0,17.0,65,-99.99,,,-99.99,,2013-01-21 13:03:00,
2013-01-21 08:13:00,15.0,6.0,-100.00,West,265,11.0,17.0,65,-99.99,,,-99.99,,2013-01-21 13:13:00,
2013-01-21 08:23:00,15.0,6.0,-100.00,WSW,255,8.0,17.0,65,-99.99,,,-99.99,,2013-01-21 13:23:00,
2013-01-21 08:33:00,15.0,6.0,-100.00,West,260,12.0,18.0,66,-99.99,,,-99.99,,2013-01-21 13:33:00,
2013-01-21 08:43:00,15.0,6.0,-100.00,West,270,13.0,19.0,66,-99.99,,,-99.99,,2013-01-21 13:43:00,
2013-01-21 08:53:00,15.0,6.0,-100.00,West,265,14.0,22.0,66,-99.99,,,-99.99,,2013-01-21 13:53:00,
2013-01-21 09:03:00,15.0,6.0,-100.00,West,260,12.0,19.0,66,-99.99,,,-99.99,,2013-01-21 14:03:00,
2013-01-21 09:12:00,15.0,6.0,-100.00,WSW,255,14.0,20.0,66,-99.99,,,-99.99,,2013-01-21 14:12:00,
2013-01-21 09:23:00,15.0,6.0,-100.00,WSW,255,11.0,20.0,66,-99.99,,,-99.99,,2013-01-21 14:23:00,
2013-01-21 09:33:00,15.0,6.0,-100.00,West,260,13.0,18.0,66,-99.99,,,-99.99,,2013-01-21 14:33:00,
2013-01-21 09:43:00,15.0,6.0,-100.00,WSW,250,11.0,21.0,67,-99.99,,,-99.99,,2013-01-21 14:43:00,
2013-01-21 09:53:00,15.0,6.0,-100.00,West,260,16.0,22.0,67,-99.99,,,-99.99,,2013-01-21 14:53:00,
2013-01-21 10:03:00,15.0,6.0,-100.00,WSW,250,14.0,20.0,67,-99.99,,,-99.99,,2013-01-21 15:03:00,
2013-01-21 10:13:00,15.0,6.0,-100.00,West,275,10.0,22.0,67,-99.99,,,-99.99,,2013-01-21 15:13:00,
2013-01-21 10:23:00,15.0,7.0,-100.00,WSW,255,13.0,19.0,68,-99.99,,,-99.99,,2013-01-21 15:23:00,
2013-01-21 10:33:00,16.0,7.0,-100.00,West,265,9.0,23.0,67,-99.99,,,-99.99,,2013-01-21 15:33:00,
2013-01-21 10:43:00,16.0,7.0,-100.00,WSW,255,13.0,27.0,68,-99.99,,,-99.99,,2013-01-21 15:43:00,
2013-01-21 10:53:00,15.0,7.0,-100.00,West,260,18.0,25.0,69,-99.99,,,-99.99,,2013-01-21 15:53:00,
2013-01-21 11:04:00,16.0,8.0,-100.00,West,265,15.0,24.0,69,-99.99,,,-99.99,,2013-01-21 16:04:00,
2013-01-21 11:12:00,16.0,8.0,-100.00,West,270,16.0,27.0,68,-99.99,,,-99.99,,2013-01-21 16:12:00,
2013-01-21 11:33:00,16.0,6.0,-100.00,West,270,16.0,27.0,66,-99.99,,,-99.99,,2013-01-21 16:33:00,
2013-01-21 11:43:00,15.0,6.0,-100.00,West,280,14.0,25.0,64,-99.99,,,-99.99,,2013-01-21 16:43:00,
2013-01-21 11:53:00,16.0,6.0,-100.00,West,260,13.0,22.0,64,-99.99,,,-99.99,,2013-01-21 16:53:00,
2013-01-21 12:03:00,16.0,6.0,-100.00,WNW,290,17.0,24.0,62,-99.99,,,-99.99,,2013-01-21 17:03:00,
2013-01-21 12:12:00,17.0,6.0,-100.00,West,280,17.0,24.0,61,-99.99,,,-99.99,,2013-01-21 17:12:00,
2013-01-21 12:23:00,17.0,5.0,-100.00,West,275,17.0,29.0,60,-99.99,,,-99.99,,2013-01-21 17:23:00,
2013-01-21 12:33:00,16.0,5.0,-100.00,West,280,16.0,25.0,59,-99.99,,,-99.99,,2013-01-21 17:33:00,
2013-01-21 12:43:00,16.0,5.0,-100.00,West,275,19.0,29.0,59,-99.99,,,-99.99,,2013-01-21 17:43:00,
2013-01-21 12:53:00,17.0,5.0,-100.00,West,270,15.0,27.0,57,-99.99,,,-99.99,,2013-01-21 17:53:00,
2013-01-21 13:03:00,17.0,4.0,-100.00,West,270,14.0,27.0,57,-99.99,,,-99.99,,2013-01-21 18:03:00,
2013-01-21 13:12:00,16.0,4.0,-100.00,WNW,285,17.0,25.0,56,-99.99,,,-99.99,,2013-01-21 18:12:00,
2013-01-21 13:23:00,17.0,5.0,-100.00,WNW,295,21.0,29.0,57,-99.99,,,-99.99,,2013-01-21 18:23:00,
2013-01-21 13:33:00,17.0,4.0,-100.00,WNW,290,19.0,30.0,56,-99.99,,,-99.99,,2013-01-21 18:33:00,
2013-01-21 13:42:00,16.0,4.0,-100.00,WNW,290,17.0,29.0,58,-99.99,,,-99.99,,2013-01-21 18:42:00,
2013-01-21 13:52:00,15.0,4.0,-100.00,WNW,285,19.0,28.0,61,-99.99,,,-99.99,,2013-01-21 18:52:00,
2013-01-21 14:03:00,15.0,5.0,-100.00,WNW,290,16.0,30.0,64,-99.99,,,-99.99,,2013-01-21 19:03:00,
2013-01-21 14:12:00,15.0,5.0,-100.00,West,275,19.0,26.0,63,-99.99,,,-99.99,,2013-01-21 19:12:00,
2013-01-21 14:22:00,15.0,5.0,-100.00,West,270,15.0,24.0,66,-99.99,,,-99.99,,2013-01-21 19:22:00,
2013-01-21 14:33:00,14.0,6.0,-100.00,WNW,295,16.0,29.0,71,-99.99,,,-99.99,,2013-01-21 19:33:00,
2013-01-21 14:43:00,13.0,7.0,-100.00,WNW,295,16.0,24.0,76,-99.99,,,-99.99,,2013-01-21 19:43:00,
2013-01-21 14:53:00,13.0,6.0,-100.00,WNW,290,17.0,25.0,74,-99.99,,,-99.99,,2013-01-21 19:53:00,
2013-01-21 15:03:00,14.0,6.0,-100.00,WNW,285,21.0,25.0,70,-99.99,,,-99.99,,2013-01-21 20:03:00,
2013-01-21 15:12:00,14.0,6.0,-100.00,WNW,290,20.0,30.0,68,-99.99,,,-99.99,,2013-01-21 20:12:00,
2013-01-21 15:23:00,14.0,5.0,-100.00,West,275,18.0,26.0,66,-99.99,,,-99.99,,2013-01-21 20:23:00,
2013-01-21 15:33:00,15.0,6.0,-100.00,West,280,16.0,26.0,67,-99.99,,,-99.99,,2013-01-21 20:33:00,
2013-01-21 15:43:00,13.0,5.0,-100.00,WNW,290,14.0,26.0,69,-99.99,,,-99.99,,2013-01-21 20:43:00,
2013-01-21 15:53:00,15.0,7.0,-100.00,WSW,255,13.0,21.0,67,-99.99,,,-99.99,,2013-01-21 20:53:00,
2013-01-21 16:04:00,15.0,5.0,-100.00,West,265,16.0,23.0,63,-99.99,,,-99.99,,2013-01-21 21:04:00,
2013-01-21 16:12:00,14.0,4.0,-100.00,West,280,14.0,24.0,66,-99.99,,,-99.99,,2013-01-21 21:12:00,
2013-01-21 16:23:00,14.0,5.0,-100.00,WNW,295,16.0,21.0,66,-99.99,,,-99.99,,2013-01-21 21:23:00,
2013-01-21 16:33:00,13.0,4.0,-100.00,WNW,290,17.0,31.0,66,-99.99,,,-99.99,,2013-01-21 21:33:00,
2013-01-21 16:43:00,13.0,5.0,-100.00,WNW,285,14.0,23.0,68,-99.99,,,-99.99,,2013-01-21 21:43:00,
2013-01-21 16:53:00,12.0,3.0,-100.00,WNW,295,21.0,26.0,65,-99.99,,,-99.99,,2013-01-21 21:53:00,
2013-01-21 17:03:00,11.0,1.0,-100.00,WNW,300,21.0,30.0,62,-99.99,,,-99.99,,2013-01-21 22:03:00,
2013-01-21 17:13:00,11.0,1.0,-100.00,West,280,12.0,28.0,63,-99.99,,,-99.99,,2013-01-21 22:13:00,
2013-01-21 17:23:00,11.0,2.0,-100.00,West,280,14.0,24.0,64,-99.99,,,-99.99,,2013-01-21 22:23:00,
2013-01-21 17:33:00,11.0,2.0,-100.00,WNW,285,20.0,26.0,66,-99.99,,,-99.99,,2013-01-21 22:33:00,
2013-01-21 17:43:00,10.0,1.0,-100.00,West,275,17.0,27.0,64,-99.99,,,-99.99,,2013-01-21 22:43:00,
2013-01-21 17:52:00,10.0,1.0,-100.00,West,275,14.0,21.0,66,-99.99,,,-99.99,,2013-01-21 22:52:00,
2013-01-21 18:03:00,10.0,0.0,-100.00,WNW,285,16.0,25.0,65,-99.99,,,-99.99,,2013-01-21 23:03:00,
2013-01-21 18:13:00,9.0,0.0,-100.00,WNW,285,16.0,24.0,65,-99.99,,,-99.99,,2013-01-21 23:13:00,
2013-01-21 18:23:00,9.0,0.0,-100.00,WNW,285,16.0,24.0,65,-99.99,,,-99.99,,2013-01-21 23:23:00,
2013-01-21 18:33:00,9.0,0.0,-100.00,WNW,290,16.0,23.0,66,-99.99,,,-99.99,,2013-01-21 23:33:00,
2013-01-21 18:42:00,9.0,1.0,-100.00,West,280,15.0,20.0,68,-99.99,,,-99.99,,2013-01-21 23:42:00,
2013-01-21 18:53:00,9.0,1.0,-100.00,WNW,285,17.0,23.0,68,-99.99,,,-99.99,,2013-01-21 23:53:00,
2013-01-21 19:03:00,9.0,0.0,-100.00,WNW,290,14.0,21.0,68,-99.99,,,-99.99,,2013-01-22 00:03:00,
2013-01-21 19:12:00,9.0,1.0,-100.00,West,270,12.0,21.0,70,-99.99,,,-99.99,,2013-01-22 00:12:00,
2013-01-21 19:22:00,9.0,1.0,-100.00,West,280,12.0,17.0,71,-99.99,,,-99.99,,2013-01-22 00:22:00,
2013-01-21 19:33:00,9.0,2.0,-100.00,West,280,12.0,19.0,73,-99.99,,,-99.99,,2013-01-22 00:33:00,
2013-01-21 19:43:00,9.0,2.0,-100.00,West,275,10.0,19.0,73,-99.99,,,-99.99,,2013-01-22 00:43:00,
2013-01-21 19:53:00,9.0,2.0,-100.00,WNW,290,12.0,17.0,75,-99.99,,,-99.99,,2013-01-22 00:53:00,
2013-01-21 20:02:00,9.0,3.0,-100.00,West,265,10.0,16.0,75,-99.99,,,-99.99,,2013-01-22 01:02:00,
2013-01-21 20:12:00,9.0,3.0,-100.00,West,270,12.0,16.0,75,-99.99,,,-99.99,,2013-01-22 01:12:00,
2013-01-21 20:23:00,9.0,4.0,-100.00,West,275,7.0,19.0,79,-99.99,,,-99.99,,2013-01-22 01:23:00,
2013-01-21 20:33:00,9.0,4.0,-100.00,WNW,285,10.0,16.0,79,-99.99,,,-99.99,,2013-01-22 01:33:00,
2013-01-21 20:42:00,9.0,4.0,-100.00,West,270,11.0,17.0,78,-99.99,,,-99.99,,2013-01-22 01:42:00,
2013-01-21 20:52:00,9.0,4.0,-100.00,West,275,11.0,17.0,79,-99.99,,,-99.99,,2013-01-22 01:52:00,
2013-01-21 21:03:00,9.0,4.0,-100.00,West,270,7.0,12.0,79,-99.99,,,-99.99,,2013-01-22 02:03:00,
2013-01-21 21:12:00,9.0,4.0,-100.00,West,275,11.0,16.0,79,-99.99,,,-99.99,,2013-01-22 02:12:00,
2013-01-21 21:22:00,8.0,4.0,-100.00,WNW,285,10.0,15.0,80,-99.99,,,-99.99,,2013-01-22 02:22:00,
2013-01-21 21:32:00,9.0,4.0,-100.00,WNW,290,8.0,17.0,80,-99.99,,,-99.99,,2013-01-22 02:32:00,
2013-01-21 21:43:00,9.0,4.0,-100.00,West,275,8.0,12.0,82,-99.99,,,-99.99,,2013-01-22 02:43:00,
2013-01-21 21:53:00,9.0,4.0,-100.00,West,275,10.0,16.0,83,-99.99,,,-99.99,,2013-01-22 02:53:00,
2013-01-21 22:03:00,8.0,5.0,-100.00,West,270,11.0,17.0,83,-99.99,,,-99.99,,2013-01-22 03:03:00,
2013-01-21 22:12:00,8.0,5.0,-100.00,West,270,7.0,16.0,84,-99.99,,,-99.99,,2013-01-22 03:12:00,
2013-01-21 22:22:00,8.0,5.0,-100.00,West,260,6.0,12.0,85,-99.99,,,-99.99,,2013-01-22 03:22:00,
2013-01-21 22:33:00,8.0,5.0,-100.00,West,265,9.0,11.0,86,-99.99,,,-99.99,,2013-01-22 03:33:00,
2013-01-21 22:42:00,8.0,5.0,-100.00,West,260,7.0,17.0,86,-99.99,,,-99.99,,2013-01-22 03:42:00,
2013-01-21 22:52:00,8.0,5.0,-100.00,West,280,12.0,17.0,86,-99.99,,,-99.99,,2013-01-22 03:52:00,
2013-01-21 23:03:00,8.0,4.0,-100.00,West,275,9.0,18.0,84,-99.99,,,-99.99,,2013-01-22 04:03:00,
2013-01-21 23:12:00,8.0,3.0,-100.00,WNW,285,14.0,20.0,82,-99.99,,,-99.99,,2013-01-22 04:12:00,
2013-01-21 23:22:00,7.0,3.0,-100.00,West,275,11.0,19.0,81,-99.99,,,-99.99,,2013-01-22 04:22:00,
2013-01-21 23:33:00,8.0,3.0,-100.00,WNW,285,12.0,21.0,80,-99.99,,,-99.99,,2013-01-22 04:33:00,
2013-01-21 23:42:00,7.0,3.0,-100.00,WNW,285,9.0,16.0,80,-99.99,,,-99.99,,2013-01-22 04:42:00,
2013-01-21 23:52:00,7.0,3.0,-100.00,West,265,7.0,12.0,81,-99.99,,,-99.99,,2013-01-22 04:52:00,